Theta_e
300 300 300 300 301 302 303 304 305 306 307 308 309 308 307 308 310 311 312 318 320 316 312 319 318 321 325 322 325 330 330 329 328 327 327 326 327 326 326 328 328 326 327 327 327
304 302 302 301 301 300 300 300 301 301 302 304 306 308 309 309 308 308 318 317 318 315 313 312 316 320 325 326 326 329 331 329 328 327 327 326 326 327 327 327 327 327 327 327 328
302 304 306 302 302 302 302 302 302 301 300 300 301 303 305 307 308 310 312 315 315 314 315 312 312 318 324 326 327 328 330 329 328 327 325 326 327 327 327 328 327 327 327 327 328
300 300 301 301 301 302 302 302 302 302 302 302 300 300 301 305 311 310 312 314 314 315 311 314 317 322 322 325 326 327 327 327 327 327 327 327 327 327 328 328 328 327 327 327 329
299 300 300 300 300 300 301 301 301 302 302 302 302 301 301 307 307 310 313 315 315 317 311 313 319 319 321 322 323 327 326 327 327 327 327 327 327 328 327 324 326 327 328 328 328
298 299 299 300 300 300 300 300 300 301 301 301 302 301 304 306 307 309 309 312 314 310 314 313 318 319 320 321 323 322 324 325 325 326 326 327 326 326 326 324 326 326 326 326 327
297 298 298 299 300 300 300 300 300 300 300 301 302 303 306 306 306 308 309 310 309 308 308 309 314 318 318 320 320 322 324 325 325 325 325 322 322 323 323 323 324 324 325 326 325
298 299 300 299 299 300 300 300 300 300 300 301 304 306 306 303 304 307 308 309 309 308 308 308 309 313 315 316 316 318 319 319 320 320 320 319 322 323 322 323 324 324 325 324 324
299 300 301 300 300 300 300 300 301 301 302 304 305 305 306 304 304 305 306 307 309 309 307 309 312 315 314 316 318 318 320 319 319 319 320 322 322 322 321 322 322 323 323 324 324
302 303 302 302 301 301 301 301 302 306 306 304 306 305 303 306 306 307 309 307 308 308 309 308 313 315 315 316 319 319 318 318 319 319 319 320 321 322 321 321 322 323 323 323 323
303 303 302 302 302 301 301 302 306 307 305 306 306 305 304 304 305 305 309 307 309 307 311 309 312 316 315 315 317 318 320 321 321 318 318 319 320 321 321 322 322 322 322 322 322
302 303 302 301 301 301 303 304 304 304 305 304 303 305 305 304 306 306 305 308 309 309 311 310 313 314 316 315 314 315 318 319 319 317 318 319 320 322 322 322 321 322 323 324 325
302 302 302 301 301 303 301 303 303 304 305 305 306 306 307 306 307 306 308 308 309 310 310 313 314 312 313 315 315 315 316 316 317 318 319 320 321 320 321 322 322 321 322 323 323
301 301 301 302 302 301 303 303 303 304 307 306 307 307 308 307 308 308 306 308 309 310 310 311 313 313 313 314 316 317 316 316 316 317 319 320 323 322 322 322 322 322 324 325 324
300 300 300 302 302 303 302 303 303 306 304 304 309 308 307 308 309 310 308 307 311 310 310 311 311 312 313 314 316 317 317 317 318 319 320 320 322 321 322 322 323 323 324 325 322
300 300 301 301 302 301 302 302 305 307 304 306 307 306 307 309 308 309 310 307 309 311 310 312 311 312 314 314 316 317 318 319 320 320 322 320 321 321 322 322 322 325 325 323 323
300 300 301 302 303 302 302 303 306 305 304 307 307 306 306 308 308 308 310 310 310 312 313 311 311 312 312 314 316 319 320 320 320 320 322 321 321 322 323 322 322 324 326 323 323
300 301 304 304 303 302 303 305 304 303 305 306 305 305 305 307 306 306 309 313 308 312 314 314 312 312 313 314 317 319 320 319 321 322 321 321 320 321 323 322 321 323 324 323 325
300 303 303 303 303 302 303 304 302 304 305 305 304 304 305 305 305 305 308 314 313 311 313 316 315 313 313 315 319 320 320 319 321 322 323 324 324 324 324 325 325 324 323 325 326
300 302 303 303 303 303 304 303 303 304 303 304 304 303 304 305 304 306 306 309 310 310 311 314 316 315 313 314 315 318 319 319 319 320 320 322 324 326 326 326 327 327 326 325 326
300 301 302 304 303 303 305 304 304 303 304 304 305 305 305 304 306 308 307 307 307 309 310 313 315 316 313 315 315 315 319 318 319 318 319 319 320 327 328 327 329 329 326 326 326
300 303 302 303 303 301 304 303 303 304 304 304 305 306 306 306 307 308 307 307 307 307 310 311 315 317 315 314 316 316 318 318 317 319 319 320 320 324 326 326 326 327 324 325 326
300 299 301 303 303 303 303 302 303 304 304 305 305 304 304 304 307 307 307 307 306 309 310 312 316 317 317 316 315 316 316 318 319 320 319 318 320 323 326 325 323 326 324 325 326
300 302 301 302 301 302 302 303 303 303 304 304 305 304 305 305 306 307 308 307 308 308 310 309 311 315 317 317 317 316 316 316 318 318 318 319 319 322 323 328 326 325 325 325 326
300 301 301 302 302 302 300 301 302 304 304 304 306 305 306 307 307 309 308 309 308 309 309 310 312 311 312 312 314 316 315 316 317 317 318 319 319 320 322 324 325 325 325 326 326
300 301 301 301 301 302 301 301 303 303 303 304 306 305 304 305 306 306 307 308 310 309 310 310 312 311 313 314 316 317 317 316 316 316 316 317 319 320 320 321 325 325 325 326 327
300 300 301 301 302 302 303 302 303 304 303 303 304 305 305 305 304 305 304 305 306 307 309 311 311 312 315 314 316 317 318 318 316 316 316 317 319 319 320 324 326 327 326 327 327
Wind_Speed
15 17 19 21 23 24 24 24 25 25 25 27 29 30 29 28 29 27 30 29 17 9 19 10 20 18 16 13 12 6 6 13 14 11 9 3 4 1 3 13 10 8 19 16 20
14 14 15 17 19 22 23 23 24 24 24 25 27 28 28 29 30 33 31 32 25 23 21 22 18 19 12 10 9 9 11 19 15 14 13 8 8 9 8 18 29 24 20 18 22
16 14 14 14 13 15 18 20 22 22 24 25 25 25 25 22 25 20 24 29 27 29 28 25 19 22 13 9 14 11 20 25 24 24 12 19 21 17 17 22 31 21 29 31 25
18 19 20 19 18 17 16 17 19 21 21 22 23 24 23 16 9 7 8 17 22 33 35 23 18 17 11 17 23 15 28 30 34 27 18 23 24 22 24 40 35 33 28 28 34
19 19 19 20 21 20 20 19 19 20 21 20 20 20 18 12 19 11 8 6 3 13 26 25 26 26 16 17 23 22 21 26 27 28 27 27 28 21 31 50 33 29 29 28 32
21 21 21 21 20 21 21 21 21 22 20 21 20 16 14 15 21 27 33 22 14 11 5 24 14 22 17 16 22 18 28 30 24 22 30 25 31 21 34 46 28 29 32 31 29
22 23 23 23 24 24 23 22 23 23 22 22 23 19 20 34 19 16 14 30 33 25 21 17 29 9 5 9 22 19 16 13 15 18 14 14 24 18 41 30 26 32 30 30 34
22 23 25 25 25 25 25 25 25 24 24 22 18 13 14 17 20 25 28 34 21 27 22 21 18 23 11 6 2 10 11 18 13 20 14 16 25 17 27 18 21 24 25 29 37
20 22 23 25 26 27 26 26 26 21 17 16 10 9 14 9 17 14 20 29 29 31 20 13 18 17 11 15 10 10 14 14 11 10 5 16 21 16 16 10 22 27 28 30 31
22 23 23 21 22 25 27 26 15 9 7 4 3 6 11 5 11 17 15 11 18 15 17 16 15 12 15 16 24 15 14 14 14 10 17 20 24 18 26 16 24 27 30 30 31
23 23 23 23 23 24 25 17 5 2 6 9 13 16 30 28 20 19 6 10 15 22 15 25 13 27 31 26 18 18 20 26 19 14 14 19 18 12 21 23 26 28 31 33 35
24 23 23 23 23 23 10 5 2 6 13 23 34 31 36 29 14 20 18 9 12 19 21 11 29 30 21 22 23 24 23 21 16 12 12 15 21 15 16 24 29 26 29 30 27
25 22 22 25 23 9 14 3 2 12 6 23 14 12 12 10 15 30 15 11 11 20 29 26 38 18 20 23 25 27 28 23 19 12 13 13 23 18 22 16 22 26 28 30 26
23 22 24 25 15 13 6 3 9 12 4 6 2 3 3 4 7 19 22 19 12 21 23 22 25 24 22 30 23 26 24 22 20 13 16 3 16 15 21 22 21 26 22 24 17
25 24 24 19 21 10 6 4 6 2 5 3 2 3 9 4 13 11 12 25 23 12 16 18 18 23 26 26 26 18 14 17 19 18 18 17 11 13 10 20 23 21 23 15 9
28 26 23 18 14 6 3 7 1 3 7 3 2 10 12 7 13 17 8 24 24 18 21 18 14 26 29 20 22 11 13 14 8 10 13 15 11 12 16 19 14 13 11 5 8
30 29 20 12 9 5 5 2 3 5 6 3 6 11 14 9 12 17 15 8 15 19 18 16 17 6 15 19 20 20 14 7 7 7 10 15 13 19 17 18 19 18 8 5 4
32 20 8 12 7 3 1 2 6 3 6 10 12 15 11 10 5 14 17 8 22 14 10 14 11 21 18 21 17 27 21 9 9 6 7 6 10 8 18 20 29 21 14 7 9
31 6 13 11 7 6 2 2 3 3 5 10 15 9 3 8 9 6 8 7 10 10 7 12 17 14 20 19 22 25 20 14 2 2 4 5 7 10 16 12 8 11 6 10 13
22 2 15 13 3 3 1 4 4 7 11 7 6 6 9 9 9 4 6 6 9 13 8 7 10 12 23 23 24 17 20 10 9 10 8 5 5 8 3 15 10 9 10 13 15
14 3 11 12 8 1 1 3 6 10 9 4 5 8 9 11 5 1 4 9 7 14 13 6 6 13 23 21 23 11 21 7 9 5 6 3 5 8 11 5 4 3 12 18 19
11 1 10 12 3 2 3 7 10 9 7 6 7 8 8 9 7 3 5 4 4 8 9 4 5 6 24 10 19 20 22 20 10 9 8 2 4 2 8 5 6 2 12 14 17
8 4 6 9 3 4 6 7 6 7 8 5 5 5 9 8 5 6 3 3 3 4 5 8 4 7 10 6 16 26 21 17 6 5 15 9 3 4 3 3 1 7 15 16 19
7 4 5 4 3 5 8 6 7 10 9 6 11 9 8 7 6 6 6 0 4 2 6 8 3 7 8 7 1 24 23 21 14 9 10 17 12 17 8 1 5 6 10 17 20
8 2 2 4 4 9 8 6 9 7 4 6 3 2 9 5 11 1 4 6 4 2 4 4 2 5 13 11 9 5 23 23 21 16 12 9 23 20 16 5 2 7 15 17 21
6 4 4 8 10 9 4 4 9 8 5 8 5 12 13 10 11 15 7 3 1 2 1 2 2 9 9 10 8 8 7 11 26 23 18 13 14 12 14 9 4 9 19 21 23
8 7 7 7 4 5 3 4 8 14 9 12 13 15 14 13 11 13 18 18 15 12 3 1 4 3 7 3 5 11 14 9 9 21 20 21 27 11 14 13 9 11 22 26 25
Wind_Direction
313 305 300 301 302 301 300 297 293 290 286 284 285 286 283 278 274 271 266 261 262 245 245 230 208 206 193 185 185 182 231 240 236 228 252 229 249 72 303 300 275 270 285 292 302
349 341 330 321 314 311 309 301 298 294 291 286 281 280 281 284 285 274 267 268 255 253 245 230 216 197 187 187 179 194 228 235 236 246 261 279 288 291 288 293 279 286 282 299 303
344 344 338 330 325 323 322 320 316 305 295 290 288 284 280 285 293 278 267 264 252 240 242 243 239 218 204 182 192 211 231 236 256 252 265 282 280 289 288 287 280 290 297 305 298
335 334 334 334 332 326 321 316 313 315 314 305 296 291 286 278 249 206 244 229 224 220 220 221 213 204 208 204 214 234 231 237 249 261 264 265 286 277 282 271 282 291 290 290 293
332 330 328 327 326 323 321 320 317 312 310 314 312 303 291 256 233 246 218 196 37 223 218 205 204 211 210 211 220 232 245 232 246 263 263 271 268 270 286 285 287 281 284 283 287
331 328 325 322 320 318 318 317 310 308 312 313 310 300 276 250 264 246 242 237 246 259 222 201 211 224 248 227 210 230 240 246 242 255 263 266 269 267 268 276 286 285 283 284 282
330 327 324 324 323 319 318 314 309 312 306 302 299 290 264 252 260 260 244 240 240 246 241 228 216 224 257 240 238 241 252 236 234 236 248 286 269 244 261 279 274 282 286 285 288
332 331 327 325 323 320 319 315 316 309 301 296 284 266 256 289 271 257 246 240 229 236 239 237 231 237 245 292 253 220 229 242 230 234 249 225 266 267 268 272 278 279 287 289 290
335 332 329 327 325 324 322 319 320 313 307 299 266 237 269 280 266 280 254 246 241 232 229 215 209 216 207 228 246 211 233 221 237 198 209 200 268 262 273 284 285 284 287 285 287
339 337 333 328 326 324 323 330 327 323 330 328 197 249 257 272 309 306 294 271 236 211 196 206 194 209 214 202 219 219 227 238 238 222 230 243 253 275 286 295 282 290 287 283 281
341 335 335 333 331 329 331 345 346 308 312 259 265 255 276 284 282 279 329 286 204 193 188 188 196 220 211 215 235 252 252 246 243 224 245 255 272 276 293 293 286 288 285 281 283
340 334 331 330 331 331 2 25 35 332 300 279 276 258 265 275 294 268 249 206 190 207 189 176 221 219 222 218 224 231 244 243 250 247 253 281 277 288 282 280 281 281 288 280 287
339 337 331 325 327 332 330 292 328 325 262 292 259 263 253 243 240 269 203 204 217 211 195 198 224 202 201 211 214 224 230 237 244 264 263 278 279 275 278 280 282 279 281 281 277
336 331 328 325 324 317 354 157 321 318 289 275 247 272 311 232 237 278 230 211 217 221 207 227 224 195 204 218 206 231 221 242 246 254 260 246 284 274 283 284 277 281 278 272 270
338 332 325 320 305 304 307 308 294 205 297 77 130 333 325 226 329 323 254 216 225 201 196 219 199 200 206 208 202 236 221 229 236 240 264 257 269 281 276 275 275 274 269 274 294
342 338 327 321 303 336 315 307 195 205 245 313 44 344 332 29 349 337 284 220 224 242 229 224 203 195 208 198 199 184 216 210 222 237 247 252 243 277 265 257 275 267 255 303 309
341 336 327 326 290 297 311 341 194 232 330 10 344 329 317 354 2 342 319 220 219 200 227 220 225 209 194 194 191 189 179 176 210 218 255 249 235 244 262 249 255 262 285 298 286
343 341 18 360 339 265 190 165 228 260 278 347 338 321 308 6 44 336 328 308 214 243 242 209 193 205 190 194 187 188 185 189 194 197 225 165 212 248 242 255 245 251 275 241 180
347 47 17 350 356 131 155 224 279 298 356 330 323 305 298 1 345 357 341 298 28 245 268 212 224 189 184 180 166 191 203 192 213 37 254 167 253 283 248 257 237 237 219 186 168
353 87 18 17 82 153 191 274 285 325 323 314 286 273 300 333 328 12 322 31 352 357 323 279 232 205 183 185 202 188 174 190 212 213 233 193 261 249 240 226 213 202 195 168 165
359 48 8 356 323 316 293 280 294 294 315 298 300 296 289 293 288 84 254 320 22 332 320 282 270 174 171 201 186 178 187 188 192 220 209 243 239 209 238 218 196 183 167 169 158
2 5 3 357 50 339 313 320 312 297 334 289 279 284 268 307 287 209 238 206 0 337 327 320 302 230 198 189 193 197 188 183 188 192 211 247 250 21 256 271 251 191 140 154 162
347 304 5 14 26 339 326 314 278 299 325 310 292 302 302 299 305 305 274 65 159 11 343 343 237 224 148 163 201 200 194 190 178 156 199 202 233 175 260 264 150 161 145 161 167
352 349 352 15 30 318 334 320 317 305 306 332 285 299 313 295 283 276 296 1 199 313 352 332 255 282 204 171 128 199 195 196 194 198 191 216 218 263 278 354 91 109 155 167 172
7 21 349 306 328 330 319 303 300 322 310 317 316 313 348 304 317 89 9 318 175 16 18 20 270 313 284 277 280 171 198 200 202 207 213 204 224 237 267 295 50 185 166 177 174
357 336 299 286 301 308 304 290 293 308 306 306 276 325 324 293 293 297 285 283 28 240 280 360 343 337 255 236 248 250 200 214 212 223 233 247 251 237 274 290 235 186 175 188 185
332 313 292 283 290 291 283 277 284 305 285 259 303 312 300 292 288 278 284 271 265 274 274 243 344 335 222 338 286 250 223 201 202 227 226 228 240 256 280 273 250 197 189 198 186